Wind_Speed
29 28 28 26 24 24 23 22 21 19 18 18 18 18 18 17 17 16 15 11 7 8 8 9 11 11 10 9 10 12 12 12 12 12 12 11 11 10 9 9 9 8
28 27 26 25 25 24 24 22 21 19 18 19 19 19 18 17 17 15 11 7 5 7 8 10 12 11 10 10 11 13 13 14 14 13 12 11 11 10 10 10 9 8
27 26 25 25 25 25 24 22 20 19 20 21 21 20 19 17 15 11 7 5 4 6 9 12 13 12 11 12 13 14 14 14 15 14 13 12 11 11 10 10 9 9
27 26 25 25 24 23 22 21 21 22 23 23 22 20 19 16 12 8 7 7 7 9 12 14 14 13 13 13 13 14 15 15 15 14 14 13 12 11 11 10 10 10
28 27 26 25 23 22 21 21 23 25 25 24 22 21 18 13 10 8 8 8 10 13 14 15 14 13 13 13 14 15 15 15 15 14 14 13 13 12 12 11 11 11
29 28 27 25 23 22 22 22 25 27 25 24 22 20 16 12 9 7 8 9 12 15 15 14 13 12 13 13 14 15 16 15 15 15 13 13 13 12 12 12 12 11
30 29 27 25 22 21 22 25 27 26 25 24 22 19 15 12 9 7 8 10 14 15 15 13 12 12 13 15 15 16 16 16 15 15 14 14 13 13 12 12 11 11
30 29 27 24 22 21 23 26 28 27 26 25 21 18 15 12 9 8 9 11 14 15 14 13 12 13 14 16 16 17 17 17 16 15 15 14 14 13 13 12 11 10
30 29 26 24 24 24 25 28 29 28 27 24 21 18 15 12 10 9 9 11 14 15 14 14 13 14 16 16 17 18 18 17 16 16 15 14 14 13 13 12 12 11
30 29 27 25 24 26 27 30 30 29 27 24 22 19 15 12 10 10 10 12 14 16 15 15 15 16 17 17 18 18 18 17 17 16 15 14 13 13 12 12 12 12
30 30 28 25 25 28 30 30 30 29 26 24 22 20 16 12 10 10 11 12 14 16 15 15 15 16 17 18 19 18 18 17 17 17 16 15 14 13 12 12 12 12
31 32 28 25 27 30 31 31 29 27 25 24 22 20 16 12 11 10 10 11 14 16 15 15 16 16 17 18 19 19 18 18 17 17 16 15 15 13 13 13 13 12
32 32 28 25 29 31 32 31 29 26 25 23 22 19 14 12 12 11 10 11 14 15 16 16 16 17 18 19 20 20 20 19 19 18 17 16 15 14 14 13 12 10
33 31 27 26 30 33 32 31 28 25 24 23 21 17 13 12 12 11 11 12 15 16 16 16 16 17 19 20 21 21 21 20 20 19 18 17 16 15 14 12 10 8
33 30 26 28 33 34 33 30 28 26 25 23 20 15 13 13 12 11 12 14 16 16 16 16 17 18 20 21 23 23 22 21 21 19 18 17 16 14 11 10 10 8
32 29 26 30 35 34 33 31 28 27 26 24 20 16 14 15 13 12 13 14 17 18 17 17 18 19 21 22 23 23 23 22 21 20 18 17 15 13 11 11 12 11
31 29 28 32 35 35 34 32 29 28 26 24 20 18 17 16 14 13 14 16 18 19 18 18 19 20 21 22 23 24 23 22 21 19 18 17 16 14 13 13 14 14
32 30 29 33 36 37 36 33 30 29 28 25 22 20 18 16 15 15 15 17 19 20 20 20 20 21 22 23 23 24 23 22 20 19 19 18 17 15 13 13 15 15
32 31 30 33 37 38 37 34 32 30 29 25 23 21 18 17 16 16 17 19 21 21 21 21 20 21 23 24 24 23 23 22 21 20 19 18 17 16 14 15 16 15
32 31 30 33 38 39 37 35 32 31 29 25 24 22 20 18 17 17 18 20 22 23 22 22 21 22 23 24 24 23 23 23 22 20 19 18 18 16 15 15 16 15
32 31 29 32 38 39 37 35 33 31 30 28 26 24 21 19 19 19 19 22 24 24 23 23 22 23 24 24 24 24 23 23 22 20 20 19 18 17 16 16 15 15
32 30 30 34 39 39 38 35 33 33 32 29 26 24 22 20 20 20 21 23 25 25 24 24 23 24 25 25 24 24 24 23 22 21 20 19 18 18 18 17 16 16
31 29 31 36 39 39 38 36 34 33 31 29 27 25 23 22 22 22 23 25 26 26 25 25 24 24 25 25 25 25 24 22 22 21 21 20 19 18 18 17 16 16
31 29 31 37 39 39 38 37 34 32 31 30 28 25 23 22 22 23 25 27 27 27 26 25 24 23 24 25 26 25 24 23 22 22 22 21 21 20 19 19 17 16
30 29 31 36 39 39 37 35 33 32 31 30 27 24 22 21 22 24 27 28 27 27 26 25 24 22 22 24 24 24 24 23 23 23 23 23 22 21 22 21 19 16
28 29 31 35 37 36 34 32 31 31 32 30 27 24 22 21 22 25 28 29 28 27 26 25 24 23 22 22 22 24 25 25 25 25 24 24 22 21 21 20 19 17
Wind_Direction
207 209 210 212 213 215 218 218 217 213 204 199 199 200 201 207 214 221 227 223 209 212 218 206 198 198 198 203 213 213 200 187 183 180 179 179 180 183 184 183 183 181
206 208 208 210 212 216 219 220 217 207 197 194 196 199 203 210 217 222 227 227 209 210 211 201 198 199 200 207 209 200 189 182 180 177 177 179 181 183 183 180 176 173
205 206 207 210 214 217 217 215 208 196 191 193 195 201 207 213 218 218 219 225 210 204 209 205 200 200 200 202 198 190 186 184 181 178 178 181 184 183 181 179 174 169
204 205 208 212 217 217 213 205 194 187 190 194 196 203 209 210 210 202 201 220 215 202 205 203 198 197 197 196 192 188 186 185 183 182 182 183 183 181 177 174 171 165
203 205 209 215 217 215 209 197 188 187 192 197 201 205 206 201 197 195 202 215 209 202 203 200 195 195 194 192 191 190 188 185 184 184 185 184 181 179 176 173 172 166
201 205 210 216 217 212 204 191 187 191 196 201 205 205 200 193 191 201 209 208 204 203 203 199 194 193 193 193 193 193 189 186 185 184 186 186 182 179 179 177 176 171
200 206 211 215 213 207 199 189 188 194 199 204 205 202 197 191 194 207 213 209 206 204 201 197 195 193 194 196 196 193 189 187 187 186 186 187 184 182 181 179 178 176
203 206 210 213 209 203 197 191 191 196 201 203 203 198 195 194 200 212 219 215 209 203 199 198 198 197 198 198 197 194 190 189 189 188 188 189 188 187 184 180 179 180
204 205 208 211 207 202 197 192 193 197 199 201 199 196 196 199 206 219 227 221 210 203 200 200 200 201 201 199 198 197 194 191 190 190 191 192 193 193 189 183 182 184
204 205 208 211 205 199 194 191 192 194 196 198 198 197 199 202 208 221 229 222 210 204 203 203 204 204 201 200 199 200 198 195 193 193 192 194 195 193 190 186 187 190
203 206 211 211 201 193 190 188 189 192 193 196 198 200 202 205 212 222 228 221 210 205 205 206 207 206 204 202 201 202 201 199 197 194 193 194 195 193 191 190 193 197
204 208 213 208 196 189 187 186 187 191 194 196 198 201 204 207 215 224 228 222 211 206 207 209 210 208 206 204 204 204 202 201 198 195 195 196 195 195 196 197 200 203
206 211 213 204 192 187 185 184 188 194 197 197 198 201 205 210 216 223 228 222 212 207 209 212 212 210 206 205 206 205 203 201 199 197 198 198 197 199 201 202 205 206
207 213 212 198 188 185 184 186 191 196 198 199 200 201 206 213 218 223 223 218 212 210 210 212 212 211 208 206 206 205 204 203 201 201 201 199 198 200 203 205 206 200
208 213 208 191 185 184 185 188 192 196 198 200 202 203 207 213 218 220 218 215 212 210 211 212 213 212 210 209 208 207 206 205 204 204 203 203 202 202 207 210 203 192
209 212 202 188 185 185 187 190 193 196 200 202 204 207 212 214 213 212 214 216 213 210 210 212 213 213 212 211 211 211 209 208 207 206 207 209 209 207 210 208 198 193
208 209 199 188 187 188 190 192 195 198 201 203 205 209 212 212 209 208 213 217 215 213 212 213 213 213 214 213 213 213 213 212 210 209 211 213 213 213 211 203 198 200
207 207 198 190 190 191 192 194 197 200 201 203 206 208 208 209 207 208 213 215 215 215 215 215 215 214 215 216 215 214 215 215 213 212 212 213 215 218 211 201 201 204
208 207 200 194 192 192 193 196 200 202 204 205 208 209 209 208 207 209 214 215 215 217 217 216 216 215 216 218 217 216 216 215 214 213 213 215 219 221 211 202 206 207
208 208 203 196 193 193 194 197 200 203 207 209 211 212 210 208 208 211 215 216 218 220 219 218 217 217 218 219 219 218 217 215 215 213 213 217 222 222 214 208 209 208
208 208 205 197 194 194 194 197 202 205 207 209 213 214 211 209 212 216 219 220 221 222 221 219 218 218 220 221 221 220 218 217 215 212 213 217 220 219 216 213 210 208
210 208 202 195 194 194 196 200 204 206 206 208 212 212 210 209 212 217 221 221 222 222 222 220 219 219 221 223 222 222 220 217 214 213 214 217 218 216 216 216 212 208
211 207 197 192 193 196 198 202 205 206 208 210 210 210 209 209 212 217 220 222 222 223 222 221 219 219 221 223 224 224 222 217 213 212 214 215 214 215 217 219 218 213
212 208 198 194 195 197 200 204 205 207 210 211 211 212 211 211 214 217 218 221 224 225 225 224 223 223 224 225 225 225 223 219 214 211 212 213 212 213 217 221 223 221
214 211 203 199 199 200 202 204 205 207 209 210 212 214 214 213 215 216 216 219 223 227 228 228 227 228 229 227 226 225 221 218 214 210 212 214 214 216 220 223 227 227
213 206 200 198 199 200 203 205 205 206 207 208 210 213 215 216 216 215 216 218 222 225 227 229 230 232 232 231 229 224 218 214 212 212 213 216 217 221 224 225 226 227
Height
1517 1518 1520 1522 1523 1524 1526 1527 1529 1530 1532 1533 1534 1535 1536 1537 1538 1539 1541 1542 1543 1544 1544 1545 1546 1547 1548 1548 1549 1550 1551 1551 1551 1552 1553 1553 1554 1555 1556 1557 1557 1558
1515 1517 1519 1521 1522 1523 1524 1526 1528 1530 1531 1532 1534 1535 1535 1536 1537 1539 1540 1541 1542 1543 1544 1545 1546 1547 1547 1548 1549 1550 1550 1550 1551 1552 1552 1553 1554 1555 1556 1557 1557 1557
1514 1515 1517 1519 1520 1521 1523 1525 1527 1529 1530 1532 1533 1534 1534 1535 1537 1538 1539 1540 1540 1542 1543 1544 1545 1546 1547 1548 1549 1549 1549 1550 1551 1551 1552 1553 1554 1555 1556 1556 1557 1557
1512 1514 1516 1517 1519 1520 1522 1524 1526 1527 1529 1530 1531 1532 1533 1535 1537 1538 1538 1539 1540 1541 1542 1543 1545 1546 1547 1547 1548 1548 1549 1550 1551 1551 1552 1553 1554 1555 1556 1556 1556 1557
1510 1512 1514 1515 1517 1519 1521 1522 1524 1526 1527 1529 1530 1531 1533 1535 1536 1537 1537 1538 1539 1540 1541 1542 1544 1545 1546 1546 1547 1548 1549 1550 1550 1552 1552 1553 1554 1555 1555 1556 1556 1556
1509 1510 1512 1514 1516 1518 1520 1521 1523 1524 1526 1528 1529 1531 1533 1534 1535 1536 1536 1537 1538 1539 1540 1541 1543 1544 1545 1546 1547 1548 1549 1549 1550 1551 1552 1553 1553 1554 1555 1555 1556 1556
1507 1509 1511 1513 1515 1516 1518 1520 1522 1523 1525 1527 1528 1530 1532 1533 1534 1534 1535 1536 1537 1538 1539 1540 1541 1542 1544 1545 1546 1547 1548 1549 1550 1551 1552 1552 1553 1554 1554 1555 1555 1556
1506 1508 1509 1511 1513 1515 1517 1519 1521 1522 1524 1526 1527 1529 1531 1532 1532 1533 1534 1535 1536 1537 1538 1539 1540 1541 1543 1544 1545 1546 1547 1548 1550 1551 1551 1552 1552 1553 1554 1554 1555 1555
1504 1506 1508 1510 1512 1514 1516 1518 1520 1521 1523 1525 1527 1528 1529 1530 1531 1532 1533 1534 1535 1536 1537 1538 1539 1540 1542 1543 1544 1545 1546 1548 1549 1550 1551 1551 1552 1553 1553 1554 1554 1555
1503 1504 1507 1508 1510 1512 1514 1516 1519 1521 1523 1525 1526 1527 1528 1529 1530 1531 1532 1533 1534 1535 1536 1537 1538 1539 1541 1542 1543 1544 1546 1547 1548 1549 1550 1551 1552 1552 1553 1554 1554 1554
1501 1503 1505 1507 1509 1511 1513 1516 1518 1520 1522 1523 1525 1526 1527 1528 1529 1530 1531 1532 1532 1534 1535 1536 1537 1538 1540 1541 1542 1544 1545 1547 1548 1549 1550 1551 1551 1552 1553 1553 1554 1554
1499 1501 1503 1505 1507 1510 1512 1515 1517 1519 1521 1522 1523 1524 1526 1527 1528 1529 1529 1530 1531 1532 1533 1535 1536 1537 1539 1540 1542 1543 1544 1546 1547 1548 1549 1550 1551 1551 1552 1553 1554 1554
1498 1499 1502 1504 1507 1509 1511 1514 1516 1518 1519 1521 1522 1523 1525 1526 1527 1527 1528 1529 1530 1531 1532 1534 1535 1536 1538 1539 1541 1542 1543 1545 1546 1547 1548 1549 1550 1551 1551 1552 1553 1555
1496 1498 1500 1503 1506 1508 1511 1513 1515 1517 1518 1519 1520 1522 1524 1525 1525 1526 1527 1527 1528 1530 1531 1532 1534 1535 1537 1538 1539 1541 1542 1543 1544 1546 1547 1548 1548 1549 1551 1552 1554 1555
1494 1497 1500 1503 1505 1507 1510 1512 1514 1516 1517 1518 1519 1521 1523 1523 1524 1525 1525 1526 1527 1528 1530 1531 1533 1534 1536 1537 1538 1540 1541 1542 1543 1545 1546 1546 1547 1549 1551 1552 1554 1555
1493 1495 1499 1502 1504 1507 1509 1511 1513 1514 1515 1517 1519 1520 1521 1522 1523 1523 1524 1525 1526 1527 1529 1530 1531 1533 1534 1536 1537 1539 1540 1541 1543 1544 1545 1546 1547 1548 1549 1551 1552 1553
1492 1494 1497 1500 1503 1506 1508 1510 1512 1513 1514 1516 1518 1519 1520 1521 1521 1522 1523 1524 1525 1526 1528 1529 1531 1532 1533 1535 1537 1538 1539 1541 1542 1544 1545 1545 1546 1547 1548 1549 1550 1551
1490 1493 1496 1499 1502 1505 1507 1509 1510 1512 1513 1515 1517 1518 1519 1519 1520 1521 1522 1523 1524 1525 1527 1528 1530 1531 1533 1534 1536 1537 1539 1540 1542 1543 1544 1544 1545 1546 1548 1549 1549 1550
1489 1492 1495 1498 1501 1503 1506 1508 1509 1510 1512 1514 1516 1517 1518 1518 1519 1521 1521 1522 1523 1525 1526 1528 1530 1531 1532 1533 1535 1537 1538 1540 1541 1542 1543 1544 1544 1546 1547 1548 1548 1549
1488 1491 1494 1497 1500 1502 1504 1506 1508 1509 1511 1513 1515 1516 1516 1517 1518 1520 1521 1522 1523 1524 1526 1528 1529 1530 1531 1533 1534 1536 1537 1539 1540 1542 1543 1543 1544 1545 1546 1547 1548 1549
1487 1489 1492 1495 1498 1501 1503 1505 1507 1509 1510 1512 1513 1514 1515 1516 1518 1519 1520 1521 1522 1523 1525 1527 1528 1530 1531 1532 1534 1535 1536 1538 1539 1541 1542 1543 1543 1544 1545 1546 1547 1548
1485 1488 1491 1493 1496 1499 1501 1503 1505 1507 1509 1510 1512 1513 1514 1515 1517 1518 1519 1519 1520 1522 1524 1526 1528 1529 1530 1531 1533 1534 1535 1537 1539 1540 1541 1542 1543 1544 1544 1545 1546 1547
1483 1486 1489 1492 1494 1497 1499 1501 1503 1505 1507 1509 1510 1511 1512 1514 1515 1517 1517 1518 1519 1520 1522 1524 1526 1528 1529 1530 1532 1533 1534 1536 1537 1539 1540 1541 1542 1543 1543 1544 1545 1546
1482 1484 1487 1490 1492 1494 1497 1499 1501 1503 1505 1506 1508 1509 1511 1512 1514 1515 1516 1517 1518 1519 1521 1523 1525 1527 1528 1529 1530 1532 1533 1535 1536 1537 1538 1539 1541 1542 1542 1543 1544 1545
1481 1483 1485 1487 1490 1492 1495 1497 1499 1502 1503 1504 1506 1508 1509 1511 1513 1514 1515 1516 1517 1518 1520 1522 1524 1526 1527 1528 1529 1531 1532 1533 1535 1536 1536 1538 1539 1540 1541 1542 1543 1544
1479 1481 1483 1485 1488 1491 1493 1496 1498 1500 1501 1502 1504 1506 1508 1510 1511 1512 1513 1514 1515 1517 1519 1521 1523 1524 1526 1527 1528 1530 1531 1532 1533 1534 1535 1536 1537 1539 1540 1541 1542 1543